When you browse on this site, cookies collect data to enhance your experience and personalize the content and advertising you see.
Visit our Privacy Policy to learn more. By continuing to use the site, you agree to this use of cookies and data.
EN

Hourly Weather Ben-Gurion

Today, 14 August, Friday

Time Temperature Precipitation Wind Pressure Humidity
00:00 +26°C° 0 mm 1 mps 750 mmHg 84%
01:00 +26°C° 0 mm 1 mps 750 mmHg 85%
02:00 +26°C° 0 mm 1 mps 749 mmHg 86%
03:00 +26°C° 0 mm 2 mps 750 mmHg 86%
04:00 +25°C° 0 mm 2 mps 750 mmHg 86%
05:00 +25°C° 0 mm 2 mps 750 mmHg 87%
06:00 +27°C° 0 mm 2 mps 750 mmHg 80%
07:00 +28°C° 0 mm 2 mps 750 mmHg 73%
08:00 +30°C° 0 mm 2 mps 750 mmHg 64%
09:00 +33°C° 0 mm 3 mps 750 mmHg 58%
10:00 +34°C° 0 mm 4 mps 750 mmHg 52%
11:00 +35°C° 0 mm 5 mps 750 mmHg 46%
12:00 +35°C° 0 mm 5 mps 749 mmHg 47%
13:00 +35°C° 0 mm 5 mps 749 mmHg 49%
14:00 +35°C° 0 mm 6 mps 748 mmHg 51%
15:00 +34°C° 0 mm 5 mps 748 mmHg 54%
16:00 +33°C° 0 mm 5 mps 748 mmHg 58%
17:00 +33°C° 0 mm 5 mps 748 mmHg 61%
18:00 +30°C° 0 mm 3 mps 748 mmHg 69%
19:00 +29°C° 0 mm 2 mps 748 mmHg 76%
20:00 +27°C° 0 mm 1 mps 748 mmHg 83%
21:00 +27°C° 0 mm 1 mps 748 mmHg 84%
22:00 +27°C° 0 mm 1 mps 749 mmHg 84%
23:00 +27°C° 0 mm 1 mps 749 mmHg 85%

Tomorrow, 15 August, Saturday

Time Temperature Precipitation Wind Pressure Humidity
00:00 +26°C° 0 mm 2 mps 748 mmHg 86%
01:00 +26°C° 0 mm 2 mps 748 mmHg 86%
02:00 +26°C° 0 mm 2 mps 748 mmHg 87%
03:00 +26°C° 0 mm 3 mps 748 mmHg 87%
04:00 +26°C° 0 mm 3 mps 748 mmHg 87%
05:00 +26°C° 0 mm 3 mps 748 mmHg 87%
06:00 +27°C° 0 mm 3 mps 748 mmHg 81%
07:00 +29°C° 0 mm 3 mps 748 mmHg 74%
08:00 +30°C° 0 mm 3 mps 748 mmHg 67%
09:00 +33°C° 0 mm 4 mps 748 mmHg 62%
10:00 +34°C° 0 mm 5 mps 748 mmHg 56%
11:00 +35°C° 0 mm 5 mps 749 mmHg 50%
12:00 +35°C° 0 mm 5 mps 748 mmHg 49%
13:00 +36°C° 0 mm 5 mps 748 mmHg 49%
14:00 +36°C° 0 mm 6 mps 748 mmHg 48%
15:00 +35°C° 0 mm 5 mps 748 mmHg 51%
16:00 +34°C° 0 mm 5 mps 747 mmHg 54%
17:00 +33°C° 0 mm 4 mps 747 mmHg 57%
18:00 +31°C° 0 mm 3 mps 748 mmHg 65%
19:00 +29°C° 0 mm 2 mps 748 mmHg 74%
20:00 +27°C° 0 mm 1 mps 748 mmHg 82%
21:00 +27°C° 0 mm 1 mps 748 mmHg 83%
22:00 +26°C° 0 mm 1 mps 748 mmHg 83%
23:00 +26°C° 0 mm 1 mps 748 mmHg 84%

Day after tomorrow, 16 August, Sunday

Time Temperature Precipitation Wind Pressure Humidity
00:00 +26°C° 0 mm 1 mps 748 mmHg 83%
01:00 +25°C° 0 mm 1 mps 747 mmHg 83%
02:00 +25°C° 0 mm 1 mps 747 mmHg 83%
03:00 +25°C° 0 mm 2 mps 747 mmHg 83%
04:00 +25°C° 0 mm 2 mps 747 mmHg 84%
05:00 +25°C° 0 mm 2 mps 748 mmHg 84%
06:00 +27°C° 0 mm 2 mps 748 mmHg 77%
07:00 +28°C° 0 mm 2 mps 748 mmHg 70%
08:00 +30°C° 0 mm 3 mps 748 mmHg 62%
09:00 +33°C° 0 mm 3 mps 748 mmHg 55%
10:00 +35°C° 0 mm 4 mps 749 mmHg 47%
11:00 +36°C° 0 mm 4 mps 749 mmHg 39%
12:00 +36°C° 0 mm 5 mps 748 mmHg 39%
13:00 +36°C° 0 mm 5 mps 748 mmHg 40%
14:00 +36°C° 0 mm 6 mps 748 mmHg 40%
15:00 +36°C° 0 mm 5 mps 748 mmHg 43%
16:00 +35°C° 0 mm 5 mps 748 mmHg 46%
17:00 +34°C° 0 mm 4 mps 748 mmHg 48%
18:00 +31°C° 0 mm 3 mps 748 mmHg 58%
19:00 +29°C° 0 mm 2 mps 749 mmHg 67%
20:00 +27°C° 0 mm 1 mps 749 mmHg 77%
21:00 +26°C° 0 mm 1 mps 749 mmHg 77%
22:00 +26°C° 0 mm 1 mps 749 mmHg 77%
23:00 +25°C° 0 mm 1 mps 748 mmHg 76%

17 August, Monday

Time Temperature Precipitation Wind Pressure Humidity
00:00 +23°C° 0 mm 0 mps 748 mmHg 74%
01:00 +23°C° 0 mm 0 mps 748 mmHg 72%
02:00 +22°C° 0 mm 0 mps 748 mmHg 70%
03:00 +24°C° 0 mm 1 mps 748 mmHg 72%
04:00 +24°C° 0 mm 1 mps 748 mmHg 74%
05:00 +24°C° 0 mm 1 mps 748 mmHg 75%
06:00 +26°C° 0 mm 1 mps 749 mmHg 69%
07:00 +28°C° 0 mm 2 mps 749 mmHg 62%
08:00 +30°C° 0 mm 2 mps 749 mmHg 56%
09:00 +33°C° 0 mm 3 mps 749 mmHg 50%
10:00 +34°C° 0 mm 3 mps 749 mmHg 45%
11:00 +36°C° 0 mm 4 mps 749 mmHg 39%
12:00 +36°C° 0 mm 5 mps 749 mmHg 41%
13:00 +36°C° 0 mm 5 mps 748 mmHg 42%
14:00 +36°C° 0 mm 5 mps 748 mmHg 44%
15:00 +35°C° 0 mm 5 mps 748 mmHg 47%
16:00 +34°C° 0 mm 4 mps 748 mmHg 49%
17:00 +33°C° 0 mm 4 mps 748 mmHg 52%
18:00 +30°C° 0 mm 3 mps 748 mmHg 60%
19:00 +28°C° 0 mm 2 mps 749 mmHg 69%
20:00 +26°C° 0 mm 1 mps 749 mmHg 77%
21:00 +25°C° 0 mm 1 mps 749 mmHg 77%
22:00 +25°C° 0 mm 1 mps 749 mmHg 76%
23:00 +22°C° 0 mm 0 mps 749 mmHg 76%

18 August, Tuesday

Time Temperature Precipitation Wind Pressure Humidity
00:00 +24°C° 0 mm 1 mps 749 mmHg 77%
01:00 +25°C° 0 mm 2 mps 749 mmHg 78%
02:00 +25°C° 0 mm 2 mps 749 mmHg 79%
03:00 +24°C° 0 mm 2 mps 749 mmHg 80%
04:00 +24°C° 0 mm 2 mps 749 mmHg 81%
05:00 +24°C° 0 mm 2 mps 749 mmHg 83%
06:00 +26°C° 0 mm 3 mps 749 mmHg 77%
07:00 +27°C° 0 mm 3 mps 749 mmHg 70%
08:00 +29°C° 0 mm 3 mps 749 mmHg 64%
09:00 +30°C° 0 mm 3 mps 749 mmHg 57%
10:00 +33°C° 0 mm 4 mps 749 mmHg 50%
11:00 +35°C° 0 mm 4 mps 749 mmHg 43%
12:00 +35°C° 0 mm 5 mps 749 mmHg 44%
13:00 +34°C° 0 mm 5 mps 748 mmHg 45%
14:00 +34°C° 0 mm 6 mps 748 mmHg 46%
15:00 +34°C° 0 mm 5 mps 748 mmHg 49%
16:00 +33°C° 0 mm 5 mps 748 mmHg 52%
17:00 +32°C° 0 mm 4 mps 748 mmHg 55%
18:00 +29°C° 0 mm 3 mps 748 mmHg 63%
19:00 +27°C° 0 mm 2 mps 748 mmHg 72%
20:00 +26°C° 0 mm 1 mps 749 mmHg 80%
21:00 +25°C° 0 mm 1 mps 749 mmHg 79%
22:00 +25°C° 0 mm 1 mps 749 mmHg 79%
23:00 +25°C° 0 mm 1 mps 749 mmHg 78%

19 August, Wednesday

Time Temperature Precipitation Wind Pressure Humidity
00:00 +24°C° 0 mm 1 mps 748 mmHg 79%
01:00 +24°C° 0 mm 1 mps 748 mmHg 80%
02:00 +24°C° 0 mm 1 mps 748 mmHg 81%
03:00 +24°C° 0 mm 2 mps 748 mmHg 82%
04:00 +24°C° 0 mm 2 mps 748 mmHg 83%
05:00 +24°C° 0 mm 2 mps 748 mmHg 84%
06:00 +25°C° 0 mm 2 mps 748 mmHg 77%
07:00 +27°C° 0 mm 3 mps 749 mmHg 70%
08:00 +29°C° 0 mm 3 mps 749 mmHg 64%
09:00 +30°C° 0 mm 3 mps 749 mmHg 58%
10:00 +33°C° 0 mm 4 mps 749 mmHg 52%
11:00 +35°C° 0 mm 5 mps 749 mmHg 46%
12:00 +34°C° 0 mm 5 mps 748 mmHg 47%
13:00 +34°C° 0 mm 5 mps 748 mmHg 48%
14:00 +34°C° 0 mm 5 mps 748 mmHg 49%
15:00 +34°C° 0 mm 5 mps 747 mmHg 53%
16:00 +33°C° 0 mm 5 mps 747 mmHg 57%
17:00 +32°C° 0 mm 4 mps 747 mmHg 61%
18:00 +29°C° 0 mm 3 mps 748 mmHg 69%
19:00 +28°C° 0 mm 2 mps 748 mmHg 77%
20:00 +26°C° 0 mm 1 mps 748 mmHg 86%
21:00 +26°C° 0 mm 1 mps 748 mmHg 86%
22:00 +25°C° 0 mm 1 mps 748 mmHg 85%
23:00 +25°C° 0 mm 1 mps 748 mmHg 85%
Show more